KA2QBS Weather Reports


time (UTC)temp
C
wind
direction
speed
KPH
gust
KPH
rain 1hr
cm
rain 24hr
cm
rain mn
cm
humidity
%
barometer
mb
20260506191543 8 284 0.0 14.5 0.00 0.00 0.00 99 1008.4
20260506190039 7 292 0.0 9.7 0.00 0.00 0.00 99 1008.3
20260506184548 7 288 1.6 9.7 0.00 0.00 0.00 98 1008.1
20260506183040 7 287 3.2 8.0 0.00 0.00 0.00 99 1007.9
20260506181537 8 286 0.0 0.0 0.00 0.00 0.00 99 1007.8
20260506180036 7 286 0.0 9.7 0.00 0.00 0.00 99 1007.8
20260506174535 7 289 1.6 8.0 0.00 0.00 0.00 98 1007.9
20260506173040 7 278 0.0 3.2 0.00 0.00 0.00 98 1007.7
20260506171543 7 278 0.0 3.2 0.00 0.00 0.00 98 1007.9
20260506170033 7 278 0.0 0.0 0.00 0.00 0.00 98 1008.0
20260506164532 7 278 0.0 0.0 0.00 0.00 0.00 99 1008.1
20260506163041 7 278 0.0 1.6 0.00 0.00 0.00 98 1008.1
20260506161535 7 278 0.0 3.2 0.00 0.00 0.00 98 1008.4
20260506160033 7 278 0.0 0.0 0.00 0.00 0.00 98 1008.1
20260506154536 7 278 0.0 6.4 0.00 0.00 0.00 98 1008.3
20260506153029 7 277 0.0 4.8 0.00 0.00 0.00 98 1008.0
20260506151527 8 277 0.0 0.0 0.00 0.00 0.00 98 1008.0
20260506150028 8 277 0.0 0.0 0.00 0.00 0.00 99 1008.0
20260506144525 8 277 0.0 0.0 0.00 0.00 0.00 98 1007.9
20260506143024 8 277 0.0 0.0 0.00 0.00 0.00 98 1008.2
20260506141523 8 277 0.0 0.0 0.00 0.00 0.00 98 1008.0
20260506140024 8 277 0.0 4.8 0.00 0.00 0.00 99 1008.3
20260506134522 8 277 0.0 6.4 0.00 0.00 0.00 98 1008.1
20260506133021 8 277 0.0 6.4 0.00 0.00 0.00 98 1008.1
20260506131521 8 277 0.0 0.0 0.00 0.00 0.00 98 1007.8
20260506130019 8 277 0.0 0.0 0.00 0.00 0.00 98 1007.6
20260506124518 9 277 0.0 0.0 0.00 0.00 0.00 99 1007.8
20260506123018 8 277 0.0 0.0 0.00 0.00 0.00 99 1008.0
20260506121515 8 277 0.0 0.0 0.00 0.00 0.00 98 1008.2
20260506120014 8 277 0.0 0.0 0.00 0.00 0.00 98 1008.3
20260506114513 8 277 0.0 4.8 0.00 0.00 0.00 98 1008.6
20260506113015 8 277 0.0 3.2 0.00 0.00 0.00 98 1008.7
20260506111511 9 277 0.0 1.6 0.00 0.00 0.00 98 1008.7
20260506110011 9 277 0.0 0.0 0.00 0.00 0.00 98 1008.5
20260506104510 9 277 0.0 0.0 0.00 0.00 0.00 98 1008.4
20260506103013 9 61 3.2 11.3 0.00 0.00 0.00 98 1008.3
20260506101508 9 322 0.0 0.0 0.00 0.00 0.00 98 1008.3
20260506100006 9 322 0.0 0.0 0.00 0.00 0.00 98 1008.6
20260506094506 9 322 0.0 0.0 0.00 0.00 0.00 98 1008.5
20260506093011 9 24 1.6 12.9 0.00 0.00 0.00 98 1008.6
20260506091505 9 290 0.0 4.8 0.00 0.00 0.00 98 1008.7
20260506090003 9 290 0.0 0.0 0.00 0.00 0.00 98 1008.5
20260506084508 9 290 0.0 0.0 0.00 0.00 0.00 98 1008.3
20260506083001 9 290 0.0 0.0 0.00 0.00 0.00 98 1008.4
20260506081504 9 290 0.0 0.0 0.00 0.00 0.00 98 1008.5
20260506080112 9 290 0.0 0.0 0.00 0.00 0.00 97 1008.9
20260506073110 9 290 0.0 4.8 0.00 0.00 0.00 98 1009.9
20260506071554 10 290 0.0 0.0 0.00 0.00 0.00 98 1009.2
20260506061559 10 290 0.0 0.0 0.00 0.00 0.00 97 1010.0
20260506044540 10 290 0.0 4.8 0.00 0.00 0.00 96 1010.5
20260506043037 11 290 0.0 1.6 0.00 0.00 0.00 96 1010.7
20260506041535 11 290 0.0 1.6 0.00 0.00 0.00 96 1010.8
20260506040032 11 290 0.0 0.0 0.00 0.00 0.00 96 1010.8
20260506034532 11 290 0.0 0.0 0.00 0.00 0.00 96 1010.7
20260506033034 11 290 0.0 0.0 0.00 0.00 0.00 95 1010.5
20260506031532 11 290 0.0 4.8 0.00 0.00 0.00 95 1010.6
20260506030029 11 290 0.0 0.0 0.00 0.00 0.00 94 1010.6
20260506024527 11 290 0.0 0.0 0.00 0.00 0.00 94 1010.5
20260506023026 11 290 0.0 0.0 0.00 0.00 0.00 94 1010.8
20260506021525 11 290 0.0 0.0 0.00 0.00 0.00 94 1010.3
20260506020042 11 290 0.0 0.0 0.00 0.00 0.00 94 1010.5
20260506014524 11 290 0.0 0.0 0.00 0.00 0.00 93 1010.1
20260506013021 12 290 0.0 1.6 0.00 0.00 0.00 92 1010.3
20260506011523 12 289 0.0 9.7 0.00 0.00 0.00 91 1010.2
20260506010116 12 287 1.6 8.0 0.00 0.00 0.00 89 1009.8
20260506004522 13 321 0.0 3.2 0.00 0.00 0.00 86 1009.1
20260506003012 15 302 1.6 12.9 0.00 0.00 0.00 84 1009.3
20260506001509 15 277 3.2 12.9 0.00 0.00 0.00 83 1008.6
20260506000006 16 311 3.2 16.1 0.00 0.00 0.00 88 1008.2
20260505234503 16 135 0.0 0.0 0.00 0.00 0.00 91 1007.5
20260505233002 16 135 0.0 0.0 0.00 0.00 0.00 91 1007.3
20260505231502 16 135 0.0 3.2 0.00 0.00 0.00 90 1007.3
20260505230005 16 135 0.0 1.6 0.00 0.00 0.00 89 1007.1
20260505224501 17 134 0.0 0.0 0.00 0.00 0.00 88 1007.1
20260505223001 17 134 0.0 3.2 0.00 0.00 0.00 87 1006.9
20260505221501 17 134 0.0 3.2 0.00 0.00 0.00 88 1006.6
20260505220109 16 135 0.0 0.0 0.00 0.00 0.00 88 1006.5
20260505214612 16 134 0.0 0.0 0.00 0.00 0.00 89 1006.5
20260505213059 16 134 0.0 8.0 0.00 0.00 0.00 89 1006.7
20260505211636 16 128 0.0 4.8 0.00 0.00 0.00 92 1007.1
20260505210058 15 128 0.0 0.0 0.00 0.00 0.00 90 1007.2
20260505204605 16 128 0.0 1.6 0.00 0.00 0.00 89 1006.7
20260505203059 15 128 0.0 6.4 0.00 0.00 0.00 89 1006.7
20260505201557 15 261 0.0 8.0 0.00 0.00 0.00 91 1006.9
20260505200055 15 284 0.0 20.9 0.00 0.00 0.00 88 1007.4
20260505194553 16 282 11.3 33.8 0.00 0.00 0.00 82 1007.2
20260505193051 18 309 11.3 29.0 0.00 0.00 0.00 77 1007.0